Tracking 19246 objects as of 19-Aug-2018
HD Live streaming from Space Station
objects crossing your sky now

COSMOS 940

Track COSMOS 940 now!
10-day predictions
COSMOS 940 is classified as:


NORAD ID: 10286
Int'l Code: 1977-079B
Perigee: 1,400.2 km
Apogee: 1,469.4 km
Inclination: 74.0 °
Period: 114.4 minutes
Semi major axis: 7805 km
RCS: 0.703 m2 (medium)
Launch date: August 24, 1977
Source: Commonwealth of Independent States (former USSR) (CIS)
Launch site: PLESETSK MISSILE AND SPACE COMPLEX (PKMTR)
aabbcc
Your satellite tracking list
Your tracking list is empty




NASA's NSSDC Master Catalog

Two Line Element Set (TLE):
1 10286U 77079B   18231.39462080 -.00000009 +00000-0 +42770-4 0  9998
2 10286 074.0244 191.6450 0044314 264.3175 257.2967 12.58852509852570
Source of the keplerian elements: AFSPC